TimePST,TemperatureF,Dew PointF,Humidity,Sea Level PressureIn,VisibilityMPH,Wind Direction,Wind SpeedMPH,Gust SpeedMPH,PrecipitationIn,Events,Conditions,WindDirDegrees,DateUTC
12:00 AM,44.2,34.7,69,30.06,-9999.0,SE,34.5,41.4,N/A,,Unknown,140,2013-01-03 08:00:00
1:00 AM,44.4,34.9,69,30.07,-9999.0,SE,31.1,39.1,N/A,,Unknown,140,2013-01-03 09:00:00
2:00 AM,43.9,34.5,70,30.05,-9999.0,SE,27.6,34.5,N/A,,Unknown,130,2013-01-03 10:00:00
3:00 AM,43.5,34.7,71,30.05,-9999.0,SE,31.1,38.0,N/A,,Unknown,130,2013-01-03 11:00:00
4:00 AM,44,34,59,30.03,,SE,28.8,,,,,140,2013-01-03 12:00:00
4:00 AM,43.5,34.3,70,30.03,-9999.0,SE,28.8,-,N/A,,Unknown,140,2013-01-03 12:00:00
5:00 AM,43.5,34.3,70,30.02,-9999.0,SE,29.9,-,N/A,,Unknown,140,2013-01-03 13:00:00
6:00 AM,43.5,35.2,73,30.01,-9999.0,SE,27.6,-,N/A,,Unknown,140,2013-01-03 14:00:00
7:00 AM,42.8,34.3,72,30.01,-9999.0,SE,26.5,-,N/A,,Unknown,140,2013-01-03 15:00:00
8:00 AM,43.0,34.7,73,29.99,-9999.0,SE,25.3,-,N/A,,Unknown,130,2013-01-03 16:00:00
9:00 AM,43.0,34.9,73,29.98,-9999.0,SE,26.5,-,N/A,,Unknown,130,2013-01-03 17:00:00
10:00 AM,43,35,64,29.98,,SE,29.9,,,,,140,2013-01-03 18:00:00
10:00 AM,43.2,34.9,73,29.98,-9999.0,SE,29.9,-,N/A,,Unknown,140,2013-01-03 18:00:00
11:00 AM,43.3,35.2,73,29.97,-9999.0,SE,26.5,33.4,N/A,,Unknown,140,2013-01-03 19:00:00
12:00 PM,43.5,34.9,72,29.96,-9999.0,SE,25.3,31.1,N/A,,Unknown,130,2013-01-03 20:00:00
1:00 PM,43.7,34.2,69,29.94,-9999.0,SE,29.9,39.1,N/A,,Unknown,140,2013-01-03 21:00:00
2:00 PM,43.9,35.2,72,29.93,-9999.0,SE,27.6,-,N/A,,Unknown,130,2013-01-03 22:00:00
3:00 PM,43.5,35.1,72,29.94,-9999.0,SE,28.8,34.5,N/A,,Unknown,140,2013-01-03 23:00:00
4:00 PM,43,36,67,29.95,,SE,29.9,,,,,140,2013-01-04 00:00:00
4:00 PM,43.3,35.6,74,29.95,-9999.0,SE,29.9,-,N/A,,Unknown,140,2013-01-04 00:00:00
5:00 PM,43.7,35.6,73,29.94,-9999.0,SE,27.6,-,N/A,,Unknown,130,2013-01-04 01:00:00
6:00 PM,43.3,35.6,74,29.94,-9999.0,SE,29.9,35.7,N/A,,Unknown,130,2013-01-04 02:00:00
7:00 PM,43.2,36.0,76,29.93,-9999.0,SE,33.4,39.1,N/A,,Unknown,130,2013-01-04 03:00:00
8:00 PM,43.7,36.0,74,29.94,-9999.0,SE,31.1,-,N/A,,Unknown,140,2013-01-04 04:00:00
9:00 PM,43.0,36.3,77,29.95,-9999.0,SE,34.5,41.4,N/A,,Unknown,130,2013-01-04 05:00:00
10:00 PM,43,35,65,29.96,,SE,35.7,,,,,130,2013-01-04 06:00:00
10:00 PM,43.0,35.2,74,29.96,-9999.0,SE,35.7,43.7,N/A,,Unknown,130,2013-01-04 06:00:00
11:00 PM,42.6,34.7,74,29.97,-9999.0,SE,36.8,43.7,N/A,,Unknown,130,2013-01-04 07:00:00